Hourly Weather Roundup
Issued by NWS Central Illinois

Home | Current Version | Previous Version | Text Only | Print | Product List | Glossary On
Versions: 1 2 3 4 5 6 7 8 9 10 11 12 13 14 15 16 17 18 19 20 21 22 23 24 25 26 27 28 29 30 31 32 33 34 35 36 37 38 39 40 41 42 43 44 45 46 47 48 49 50
000
NZUS43 KILX 280510
HWRILX

AREA WEATHER ROUNDUP
NATIONAL WEATHER SERVICE, LINCOLN IL
1200 AM CDT MON JUL 28 2014


CITY           SKY/WX    TMP DP  RH WIND       PRES   REMARKS
BLOOMINGTON    PTCLDY    66  58  75 NW16      29.94S
CHAMPAIGN      CLEAR     63  60  90 W9        29.91F
DECATUR        CLEAR     69  59  70 NW12G22   29.94S
FLORA          CLEAR     68  58  68 NW8       29.94S
GALESBURG      CLEAR     64  61  90 W7        29.98S
JACKSONVILLE   CLEAR     68  60  75 NW8       30.00S
LACON          PTCLDY    66  59  78 NW8       29.94R
LAWRENCEVILLE  CLEAR     69  59  70 NW10      29.91S
LITCHFIELD     CLEAR     64  59  83 NW7       29.98S
$$


CITY           SKY/WX    TMP DP  RH WIND       PRES   REMARKS
LINCOLN        CLEAR     66  60  78 W3        29.92S
MACOMB         CLEAR     62  60  92 W8        30.01S
MATTOON        CLEAR     65  59  81 W13       29.91F
MT CARMEL AP   CLEAR     72  59  64 NW8       29.91S
OLNEY-NOBLE AP CLEAR     64  59  82 NW7       29.93S
PARIS          CLEAR     64  60  88 NW6       29.90S
PEORIA         CLEAR     68  59  73 NW8       29.95S
PONTIAC        PTCLDY    64  63  94 NW6       29.91R
RANTOUL        CLEAR     65  59  79 W8        29.91S
ROBINSON       CLEAR     70  61  72 NW10G16   29.91S
SPRINGFIELD    CLEAR     68  59  73 NW8       29.96F
TAYLORVILLE    CLEAR     64  59  82 W7        29.96S
$$

...REGIONAL REPORTS...


CITY           SKY/WX    TMP DP  RH WIND       PRES   REMARKS
CHICAGO O`HARE MOCLDY    65  55  70 N20       29.91R
KANKAKEE       CLOUDY    64  60  86 NW3       29.89R
MOLINE         MOCLDY    68  60  75 NW9       29.97R
MOUNT VERNON   CLEAR     72  55  56 NW3       29.96R
PITTSFIELD     CLEAR     68  58  69 NW7       30.02S
QUINCY         CLEAR     65  58  78 NW8       30.02S
ROCKFORD       MOCLDY    68  59  73 N22       29.98R
$$


CITY           SKY/WX    TMP DP  RH WIND       PRES   REMARKS
BURLINGTON     CLEAR     66  60  81 NW9       30.00S
CEDAR RAPIDS   CLEAR     64  60  87 NW10      30.01R
DES MOINES     CLEAR     67  57  70 NW12      30.09S
KIRKSVILLE     CLEAR     65  57  75 NW7       30.09R
OTTUMWA        CLEAR     65  58  78 NW12      30.05S
ST LOUIS       CLEAR     72  59  63 NW7       30.00R
$$


CITY           SKY/WX    TMP DP  RH WIND       PRES   REMARKS
TERRE HAUTE    CLEAR     69  58  67 W10       29.88F
EVANSVILLE     CLEAR     74  57  55 NW8G17    29.92R
INDIANAPOLIS   CLEAR     67  57  70 W13       29.84S
LAFAYETTE      CLEAR     63  58  83 W8        29.85S
MADISON        PTCLDY    62  54  74 N12       30.00R
MILWAUKEE      PTCLDY    63  53  70 N10       29.94R
$$





USA.gov is the U.S. government's official web portal to all federal, state and local government web resources and services.